| time (UTC) | temp F | wind direction | speed knots | gust knots | rain 1hr in | rain 24hr in | rain mn in | humidity % | barometer mb |
| 20260903145814 | 52 | 106 | 0.0 | 0.0 | 0.02 | 0.31 | 0.09 | 99 | 1007.8 |
| 20260903144746 | 52 | 106 | 0.0 | 0.0 | 0.03 | 0.31 | 0.09 | 99 | 1007.8 |
| 20260903143736 | 52 | 106 | 0.0 | 0.0 | 0.03 | 0.31 | 0.09 | 99 | 1007.9 |
| 20260903142714 | 52 | 106 | 0.0 | 0.0 | 0.03 | 0.30 | 0.08 | 99 | 1007.8 |
| 20260903141653 | 52 | 107 | 0.0 | 0.0 | 0.04 | 0.30 | 0.08 | 99 | 1007.5 |
| 20260903140644 | 52 | 103 | 0.0 | 0.0 | 0.04 | 0.30 | 0.08 | 99 | 1007.7 |
| 20260903135640 | 51 | 103 | 0.0 | 0.0 | 0.03 | 0.29 | 0.07 | 99 | 1007.8 |
| 20260903134625 | 51 | 103 | 0.0 | 0.0 | 0.04 | 0.28 | 0.06 | 99 | 1007.8 |
| 20260903133606 | 51 | 103 | 0.0 | 0.0 | 0.04 | 0.27 | 0.05 | 98 | 1007.6 |
| 20260903132557 | 51 | 103 | 0.0 | 0.0 | 0.04 | 0.27 | 0.05 | 98 | 1007.6 |
| 20260903131529 | 51 | 103 | 0.0 | 0.0 | 0.04 | 0.26 | 0.04 | 98 | 1007.3 |
| 20260903130524 | 51 | 103 | 0.0 | 0.0 | 0.04 | 0.26 | 0.04 | 98 | 1007.4 |
| 20260903125503 | 52 | 103 | 0.0 | 0.0 | 0.04 | 0.26 | 0.04 | 97 | 1007.3 |
| 20260903124448 | 52 | 110 | 0.0 | 0.0 | 0.02 | 0.24 | 0.02 | 97 | 1007.5 |
| 20260903123421 | 51 | 111 | 0.0 | 0.0 | 0.01 | 0.23 | 0.01 | 97 | 1007.4 |
| 20260903122354 | 51 | 111 | 0.0 | 0.0 | 0.00 | 0.22 | 0.00 | 96 | 1007.6 |
| 20260903121318 | 51 | 111 | 0.0 | 0.0 | 0.00 | 0.22 | 0.00 | 96 | 1007.3 |
| 20260903120250 | 51 | 111 | 0.0 | 0.0 | 0.00 | 0.22 | 0.00 | 96 | 1007.0 |
| 20260903115227 | 51 | 111 | 0.0 | 0.0 | 0.00 | 0.22 | 0.00 | 96 | 1006.9 |
| 20260903114203 | 51 | 111 | 0.0 | 0.0 | 0.00 | 0.22 | 0.00 | 96 | 1006.9 |
| 20260903113149 | 51 | 107 | 0.0 | 0.0 | 0.00 | 0.22 | 0.00 | 96 | 1006.7 |
| 20260903112148 | 51 | 107 | 0.0 | 0.0 | 0.00 | 0.22 | 0.00 | 96 | 1006.7 |
| 20260903111127 | 51 | 106 | 0.0 | 0.0 | 0.00 | 0.22 | 0.00 | 96 | 1006.9 |
| 20260903110044 | 51 | 106 | 0.0 | 0.0 | 0.00 | 0.22 | 0.00 | 96 | 1006.9 |
| 20260903105022 | 51 | 106 | 0.0 | 0.0 | 0.00 | 0.22 | 0.00 | 96 | 1006.9 |
| 20260903104021 | 51 | 106 | 0.0 | 0.0 | 0.00 | 0.22 | 0.00 | 96 | 1006.8 |
| 20260903103002 | 51 | 106 | 0.0 | 0.0 | 0.00 | 0.22 | 0.00 | 97 | 1006.8 |
| 20260903102002 | 51 | 106 | 0.0 | 0.0 | 0.00 | 0.22 | 0.00 | 96 | 1006.7 |
| 20260903100952 | 51 | 106 | 0.0 | 0.0 | 0.00 | 0.22 | 0.00 | 96 | 1007.0 |
| 20260903095925 | 50 | 106 | 0.0 | 0.0 | 0.00 | 0.22 | 0.00 | 97 | 1006.6 |
| 20260903094916 | 51 | 106 | 0.0 | 0.0 | 0.00 | 0.22 | 0.00 | 96 | 1006.8 |
| 20260903093851 | 51 | 106 | 0.0 | 0.0 | 0.00 | 0.22 | 0.00 | 96 | 1006.9 |
| 20260903092827 | 51 | 106 | 0.0 | 0.0 | 0.00 | 0.22 | 0.00 | 96 | 1006.7 |
| 20260903091823 | 51 | 106 | 0.0 | 0.0 | 0.00 | 0.22 | 0.00 | 97 | 1006.7 |
| 20260903090808 | 51 | 106 | 0.0 | 0.0 | 0.00 | 0.22 | 0.00 | 97 | 1006.7 |
| 20260903085744 | 51 | 106 | 0.0 | 0.0 | 0.00 | 0.22 | 0.00 | 97 | 1006.7 |
| 20260903084743 | 51 | 106 | 0.0 | 0.0 | 0.00 | 0.22 | 0.00 | 97 | 1006.6 |
| 20260903083742 | 51 | 106 | 0.0 | 0.0 | 0.00 | 0.22 | 0.00 | 97 | 1006.8 |
| 20260903082719 | 51 | 106 | 0.0 | 0.0 | 0.00 | 0.22 | 0.00 | 97 | 1006.6 |
| 20260903081701 | 51 | 106 | 0.0 | 0.0 | 0.00 | 0.22 | 0.00 | 97 | 1006.5 |
| 20260903080645 | 51 | 106 | 0.0 | 0.0 | 0.00 | 0.22 | 0.00 | 98 | 1006.6 |
| 20260903075631 | 51 | 106 | 0.0 | 0.0 | 0.00 | 0.22 | 0.22 | 99 | 1006.7 |
| 20260903074615 | 51 | 106 | 0.0 | 0.0 | 0.00 | 0.22 | 0.22 | 99 | 1006.6 |
| 20260903073558 | 51 | 106 | 0.0 | 0.0 | 0.00 | 0.22 | 0.22 | 99 | 1006.5 |
| 20260903072545 | 51 | 106 | 0.0 | 0.0 | 0.00 | 0.22 | 0.22 | 99 | 1006.5 |
| 20260903071533 | 51 | 106 | 0.0 | 0.0 | 0.00 | 0.22 | 0.22 | 99 | 1006.5 |
| 20260903070517 | 51 | 106 | 0.0 | 0.0 | 0.00 | 0.22 | 0.22 | 99 | 1006.5 |
| 20260903065508 | 51 | 106 | 0.0 | 0.0 | 0.00 | 0.22 | 0.22 | 99 | 1006.4 |
| 20260903064502 | 51 | 106 | 0.0 | 0.0 | 0.00 | 0.22 | 0.22 | 99 | 1006.4 |
| 20260903063500 | 52 | 106 | 0.0 | 0.0 | 0.00 | 0.22 | 0.22 | 99 | 1006.5 |
| 20260903062451 | 52 | 106 | 0.0 | 0.0 | 0.00 | 0.22 | 0.22 | 99 | 1006.3 |
| 20260903061439 | 52 | 106 | 0.0 | 0.0 | 0.00 | 0.22 | 0.22 | 99 | 1006.5 |
| 20260903060432 | 52 | 106 | 0.0 | 0.0 | 0.00 | 0.22 | 0.22 | 99 | 1006.5 |
| 20260903055427 | 52 | 106 | 0.0 | 0.0 | 0.00 | 0.22 | 0.22 | 99 | 1006.6 |
| 20260903054412 | 52 | 106 | 0.0 | 0.0 | 0.00 | 0.22 | 0.22 | 99 | 1006.4 |
| 20260903053348 | 52 | 106 | 0.0 | 0.0 | 0.00 | 0.22 | 0.22 | 99 | 1006.5 |
| 20260903052315 | 52 | 106 | 0.0 | 0.0 | 0.00 | 0.22 | 0.22 | 99 | 1006.6 |
| 20260903051313 | 52 | 106 | 0.0 | 0.0 | 0.00 | 0.22 | 0.22 | 99 | 1006.5 |
| 20260903050307 | 52 | 106 | 0.0 | 0.0 | 0.00 | 0.22 | 0.22 | 99 | 1006.5 |
| 20260903045252 | 52 | 106 | 0.0 | 0.0 | 0.00 | 0.22 | 0.22 | 99 | 1006.4 |
| 20260903044234 | 53 | 106 | 0.0 | 0.0 | 0.00 | 0.22 | 0.22 | 99 | 1006.2 |
| 20260903043230 | 53 | 106 | 0.0 | 0.0 | 0.00 | 0.22 | 0.22 | 98 | 1006.1 |
| 20260903042230 | 53 | 106 | 0.0 | 0.0 | 0.00 | 0.22 | 0.22 | 98 | 1006.2 |
| 20260903041200 | 54 | 106 | 0.0 | 0.0 | 0.00 | 0.22 | 0.22 | 98 | 1006.0 |
| 20260903040147 | 54 | 106 | 0.0 | 0.0 | 0.00 | 0.22 | 0.22 | 98 | 1006.2 |
| 20260903035128 | 54 | 106 | 0.0 | 0.0 | 0.00 | 0.22 | 0.22 | 98 | 1005.9 |
| 20260903034115 | 55 | 105 | 0.0 | 0.0 | 0.00 | 0.22 | 0.22 | 98 | 1005.8 |
| 20260903033110 | 55 | 106 | 0.0 | 0.0 | 0.00 | 0.22 | 0.22 | 98 | 1005.5 |
| 20260903032036 | 55 | 106 | 0.0 | 0.0 | 0.00 | 0.22 | 0.22 | 98 | 1005.5 |
| 20260903031026 | 55 | 105 | 0.0 | 0.0 | 0.00 | 0.22 | 0.22 | 98 | 1005.1 |
| 20260903030006 | 56 | 107 | 0.0 | 0.0 | 0.00 | 0.22 | 0.22 | 98 | 1005.1 |
| 20260903024955 | 56 | 107 | 0.0 | 0.0 | 0.00 | 0.22 | 0.22 | 97 | 1005.2 |
| 20260903023949 | 56 | 107 | 0.0 | 0.0 | 0.00 | 0.22 | 0.22 | 97 | 1005.0 |
| 20260903022920 | 56 | 108 | 0.0 | 0.0 | 0.00 | 0.22 | 0.22 | 96 | 1004.9 |
| 20260903021910 | 56 | 108 | 0.0 | 0.0 | 0.00 | 0.22 | 0.22 | 96 | 1004.8 |
| 20260903020843 | 57 | 107 | 0.0 | 0.0 | 0.00 | 0.22 | 0.22 | 95 | 1004.8 |
| 20260903015831 | 58 | 111 | 0.0 | 0.0 | 0.00 | 0.22 | 0.22 | 95 | 1004.7 |
| 20260903014802 | 58 | 107 | 0.0 | 0.0 | 0.00 | 0.22 | 0.22 | 94 | 1004.7 |
| 20260903013723 | 58 | 102 | 0.0 | 0.0 | 0.01 | 0.22 | 0.22 | 93 | 1004.5 |
| 20260903012659 | 58 | 110 | 0.0 | 0.0 | 0.05 | 0.22 | 0.22 | 93 | 1004.3 |
| 20260903011644 | 59 | 108 | 0.0 | 0.0 | 0.05 | 0.22 | 0.22 | 93 | 1004.1 |
| 20260903010621 | 58 | 113 | 0.0 | 0.0 | 0.05 | 0.22 | 0.22 | 96 | 1004.1 |
| 20260903005600 | 57 | 108 | 0.0 | 0.0 | 0.05 | 0.22 | 0.22 | 96 | 1003.9 |
| 20260903004557 | 57 | 101 | 0.9 | 0.9 | 0.05 | 0.22 | 0.22 | 97 | 1003.9 |
| 20260903003534 | 58 | 131 | 0.9 | 0.9 | 0.03 | 0.20 | 0.20 | 98 | 1004.0 |
| 20260903002516 | 59 | 104 | 0.0 | 0.0 | 0.00 | 0.17 | 0.17 | 98 | 1003.7 |
| 20260903001512 | 59 | 107 | 0.0 | 0.0 | 0.00 | 0.17 | 0.17 | 98 | 1003.0 |
| 20260903000501 | 59 | 105 | 0.0 | 0.0 | 0.00 | 0.17 | 0.17 | 98 | 1002.9 |
| 20260902235441 | 59 | 109 | 0.0 | 0.0 | 0.01 | 0.17 | 0.17 | 98 | 1002.9 |
| 20260902234432 | 59 | 109 | 0.0 | 0.0 | 0.02 | 0.17 | 0.17 | 98 | 1002.9 |
| 20260902233424 | 59 | 106 | 0.0 | 0.0 | 0.04 | 0.17 | 0.17 | 98 | 1003.1 |
| 20260902232404 | 59 | 106 | 0.0 | 0.0 | 0.05 | 0.17 | 0.17 | 98 | 1003.0 |
| 20260902231325 | 59 | 105 | 0.0 | 0.0 | 0.07 | 0.17 | 0.17 | 97 | 1002.7 |
| 20260902230309 | 58 | 105 | 0.0 | 0.0 | 0.08 | 0.17 | 0.17 | 97 | 1002.9 |
| 20260902225250 | 59 | 106 | 0.0 | 0.0 | 0.09 | 0.16 | 0.16 | 97 | 1003.3 |
| 20260902224220 | 59 | 105 | 0.0 | 0.0 | 0.10 | 0.15 | 0.15 | 97 | 1003.3 |
| 20260902223203 | 59 | 108 | 0.0 | 0.0 | 0.09 | 0.13 | 0.13 | 96 | 1003.2 |
| 20260902222154 | 60 | 106 | 0.0 | 0.0 | 0.07 | 0.11 | 0.11 | 96 | 1003.1 |
| 20260902221139 | 60 | 105 | 0.0 | 0.0 | 0.07 | 0.10 | 0.10 | 95 | 1003.0 |
| 20260902220111 | 60 | 104 | 0.0 | 0.0 | 0.07 | 0.09 | 0.09 | 94 | 1003.3 |
| 20260902215041 | 60 | 102 | 0.0 | 0.0 | 0.06 | 0.07 | 0.07 | 92 | 1003.2 |
| 20260902214012 | 61 | 107 | 0.0 | 0.0 | 0.04 | 0.05 | 0.05 | 91 | 1003.4 |
| 20260902213005 | 61 | 106 | 0.0 | 0.0 | 0.03 | 0.04 | 0.04 | 91 | 1003.4 |
| 20260902211940 | 61 | 109 | 0.0 | 0.0 | 0.03 | 0.04 | 0.04 | 88 | 1003.3 |
| 20260902210911 | 61 | 117 | 0.9 | 0.9 | 0.02 | 0.03 | 0.03 | 86 | 1003.2 |
| 20260902205900 | 62 | 103 | 0.0 | 0.9 | 0.01 | 0.02 | 0.02 | 84 | 1003.4 |
| 20260902204832 | 63 | 110 | 0.0 | 0.9 | 0.00 | 0.01 | 0.01 | 79 | 1003.3 |
| 20260902203757 | 64 | 108 | 0.0 | 0.0 | 0.01 | 0.01 | 0.01 | 80 | 1003.1 |
| 20260902202718 | 65 | 110 | 0.0 | 0.0 | 0.01 | 0.01 | 0.01 | 77 | 1003.1 |
| 20260902201712 | 65 | 102 | 0.9 | 1.7 | 0.01 | 0.01 | 0.01 | 74 | 1003.0 |
| 20260902200706 | 64 | 112 | 0.9 | 0.9 | 0.01 | 0.01 | 0.01 | 76 | 1003.1 |
| 20260902195647 | 65 | 105 | 0.0 | 0.0 | 0.01 | 0.01 | 0.01 | 79 | 1003.6 |
| 20260902194630 | 64 | 109 | 0.0 | 0.0 | 0.01 | 0.01 | 0.01 | 78 | 1003.4 |
| 20260902193625 | 63 | 103 | 0.0 | 0.0 | 0.00 | 0.00 | 0.00 | 83 | 1003.5 |
| 20260902192612 | 63 | 108 | 0.0 | 0.0 | 0.00 | 0.00 | 0.00 | 80 | 1003.7 |
| 20260902191612 | 69 | 151 | 0.0 | 0.9 | 0.00 | 0.00 | 0.00 | 59 | 1003.5 |
| 20260902190603 | 69 | 118 | 0.0 | 0.0 | 0.00 | 0.00 | 0.00 | 57 | 1003.6 |
| 20260902185529 | 69 | 105 | 0.0 | 0.0 | 0.00 | 0.00 | 0.00 | 62 | 1003.6 |
| 20260902184524 | 68 | 110 | 0.0 | 0.0 | 0.00 | 0.00 | 0.00 | 63 | 1003.6 |
| 20260902183506 | 67 | 109 | 0.0 | 0.0 | 0.00 | 0.00 | 0.00 | 66 | 1003.8 |
| 20260902182440 | 66 | 109 | 0.0 | 0.0 | 0.00 | 0.00 | 0.00 | 70 | 1003.7 |
| 20260902181430 | 66 | 108 | 0.0 | 0.0 | 0.00 | 0.00 | 0.00 | 70 | 1003.9 |
| 20260902180406 | 64 | 109 | 0.0 | 0.0 | 0.00 | 0.00 | 0.00 | 74 | 1003.9 |
| 20260902175336 | 63 | 109 | 0.0 | 0.0 | 0.00 | 0.00 | 0.00 | 75 | 1004.1 |
| 20260902174336 | 63 | 109 | 0.0 | 0.0 | 0.00 | 0.00 | 0.00 | 77 | 1004.2 |
| 20260902173320 | 64 | 109 | 0.0 | 0.0 | 0.00 | 0.00 | 0.00 | 76 | 1004.3 |
| 20260902172316 | 64 | 110 | 0.0 | 0.0 | 0.00 | 0.00 | 0.00 | 75 | 1004.3 |
| 20260902171245 | 63 | 110 | 0.0 | 0.0 | 0.00 | 0.00 | 0.00 | 77 | 1004.6 |
| 20260902170235 | 63 | 110 | 0.0 | 0.0 | 0.00 | 0.00 | 0.00 | 78 | 1004.5 |
| 20260902165209 | 63 | 107 | 0.0 | 0.0 | 0.00 | 0.00 | 0.00 | 79 | 1004.9 |
| 20260902164156 | 63 | 107 | 0.0 | 0.0 | 0.00 | 0.00 | 0.00 | 80 | 1004.7 |
| 20260902163122 | 63 | 107 | 0.0 | 0.0 | 0.00 | 0.00 | 0.00 | 80 | 1004.8 |
| 20260902162111 | 63 | 107 | 0.0 | 0.0 | 0.00 | 0.00 | 0.00 | 76 | 1004.9 |
| 20260902161039 | 64 | 108 | 0.0 | 0.0 | 0.00 | 0.00 | 0.00 | 75 | 1005.0 |
| 20260902160024 | 63 | 111 | 0.0 | 0.0 | 0.00 | 0.00 | 0.00 | 76 | 1005.1 |
| 20260902155021 | 63 | 116 | 0.0 | 0.0 | 0.00 | 0.00 | 0.00 | 79 | 1005.1 |
| 20260902154016 | 62 | 107 | 0.0 | 0.0 | 0.00 | 0.00 | 0.00 | 82 | 1005.2 |
| 20260902153001 | 61 | 102 | 0.0 | 0.0 | 0.00 | 0.00 | 0.00 | 86 | 1005.1 |
| 20260902151957 | 59 | 103 | 0.0 | 0.0 | 0.00 | 0.00 | 0.00 | 93 | 1005.2 |
| 20260902150950 | 58 | 102 | 0.0 | 0.0 | 0.00 | 0.00 | 0.00 | 97 | 1005.4 |